• In Hungary
  • List of Countries
  • For 7 days
  • Water Temperature
  • Satellite Maps
  • Weather Map
  • News
  • Weather Widgets
  • user-avatar
    Login

    Hourly Weather Ropianka

    Today, 24 June, Sunday

    Time Temperature Precipitation Wind Pressure Humidity
    00:00 +7°C° 0 mm 2 mps 719 mmHg 94%
    01:00 +6°C° 0 mm 2 mps 719 mmHg 95%
    02:00 +6°C° 0 mm 2 mps 719 mmHg 95%
    03:00 +6°C° 0 mm 2 mps 719 mmHg 96%
    04:00 +6°C° 0 mm 2 mps 719 mmHg 96%
    05:00 +8°C° 0 mm 2 mps 720 mmHg 92%
    06:00 +9°C° 0 mm 2 mps 720 mmHg 89%
    07:00 +12°C° 0 mm 2 mps 720 mmHg 85%
    08:00 +11°C° 0.6 mm 3 mps 720 mmHg 86%
    09:00 +11°C° 0.6 mm 3 mps 720 mmHg 86%
    10:00 +12°C° 0.6 mm 3 mps 720 mmHg 87%
    11:00 +13°C° 0.4 mm 3 mps 720 mmHg 82%
    12:00 +14°C° 0.4 mm 3 mps 720 mmHg 77%
    13:00 +16°C° 0.4 mm 3 mps 720 mmHg 72%
    14:00 +16°C° 0.3 mm 3 mps 720 mmHg 73%
    15:00 +16°C° 0.3 mm 3 mps 720 mmHg 74%
    16:00 +16°C° 0.3 mm 3 mps 719 mmHg 75%
    17:00 +15°C° 0.2 mm 2 mps 719 mmHg 79%
    18:00 +14°C° 0.2 mm 2 mps 719 mmHg 83%
    19:00 +13°C° 0.2 mm 1 mps 719 mmHg 87%
    20:00 +12°C° 0 mm 1 mps 719 mmHg 89%
    21:00 +11°C° 0 mm 1 mps 719 mmHg 91%
    22:00 +10°C° 0 mm 1 mps 720 mmHg 92%
    23:00 +10°C° 0 mm 1 mps 720 mmHg 93%

    Tomorrow, 25 June, Monday

    Time Temperature Precipitation Wind Pressure Humidity
    00:00 +9°C° 0 mm 1 mps 720 mmHg 94%
    01:00 +9°C° 0 mm 1 mps 720 mmHg 95%
    02:00 +9°C° 0 mm 1 mps 720 mmHg 96%
    03:00 +9°C° 0 mm 1 mps 720 mmHg 96%
    04:00 +8°C° 0 mm 1 mps 720 mmHg 97%
    05:00 +10°C° 0 mm 1 mps 720 mmHg 93%
    06:00 +12°C° 0 mm 1 mps 721 mmHg 90%
    07:00 +13°C° 0 mm 2 mps 721 mmHg 86%
    08:00 +14°C° 0.2 mm 2 mps 721 mmHg 82%
    09:00 +15°C° 0.2 mm 2 mps 722 mmHg 77%
    10:00 +16°C° 0.2 mm 2 mps 722 mmHg 73%
    11:00 +17°C° 0.4 mm 2 mps 722 mmHg 72%
    12:00 +17°C° 0.4 mm 2 mps 722 mmHg 72%
    13:00 +18°C° 0.4 mm 2 mps 722 mmHg 71%
    14:00 +19°C° 0.6 mm 1 mps 722 mmHg 71%
    15:00 +19°C° 0.6 mm 1 mps 722 mmHg 72%
    16:00 +19°C° 0.6 mm 1 mps 722 mmHg 72%
    17:00 +18°C° 0.3 mm 1 mps 722 mmHg 76%
    18:00 +16°C° 0.3 mm 1 mps 722 mmHg 81%
    19:00 +15°C° 0.3 mm 1 mps 722 mmHg 86%
    20:00 +14°C° 0.1 mm 1 mps 722 mmHg 88%
    21:00 +12°C° 0.1 mm 1 mps 722 mmHg 89%
    22:00 +11°C° 0.1 mm 1 mps 722 mmHg 91%
    23:00 +11°C° 0 mm 1 mps 722 mmHg 92%

    Day after tomorrow, 26 June, Tuesday

    Time Temperature Precipitation Wind Pressure Humidity
    00:00 +11°C° 0 mm 1 mps 722 mmHg 93%
    01:00 +10°C° 0 mm 1 mps 722 mmHg 93%
    02:00 +10°C° 0 mm 1 mps 722 mmHg 93%
    03:00 +10°C° 0 mm 1 mps 722 mmHg 94%
    04:00 +10°C° 0 mm 1 mps 722 mmHg 94%
    05:00 +11°C° 0 mm 1 mps 722 mmHg 90%
    06:00 +13°C° 0 mm 1 mps 723 mmHg 86%
    07:00 +15°C° 0 mm 2 mps 723 mmHg 82%
    08:00 +17°C° 0 mm 2 mps 723 mmHg 73%
    09:00 +18°C° 0 mm 2 mps 723 mmHg 64%
    10:00 +20°C° 0 mm 2 mps 723 mmHg 55%
    11:00 +20°C° 0.2 mm 2 mps 723 mmHg 55%
    12:00 +21°C° 0.2 mm 2 mps 723 mmHg 54%
    13:00 +21°C° 0.2 mm 3 mps 723 mmHg 54%
    14:00 +21°C° 0.3 mm 3 mps 723 mmHg 56%
    15:00 +21°C° 0.3 mm 2 mps 723 mmHg 58%
    16:00 +21°C° 0.3 mm 2 mps 722 mmHg 59%
    17:00 +19°C° 0 mm 2 mps 722 mmHg 65%
    18:00 +18°C° 0 mm 2 mps 722 mmHg 71%
    19:00 +18°C° 0 mm 1 mps 722 mmHg 76%
    20:00 +15°C° 0 mm 1 mps 722 mmHg 79%
    21:00 +14°C° 0 mm 1 mps 722 mmHg 83%
    22:00 +13°C° 0 mm 1 mps 722 mmHg 86%
    23:00 +12°C° 0 mm 1 mps 722 mmHg 87%

    27 June, Wednesday

    Time Temperature Precipitation Wind Pressure Humidity
    00:00 +12°C° 0 mm 1 mps 722 mmHg 88%
    01:00 +11°C° 0 mm 1 mps 722 mmHg 90%
    02:00 +11°C° 0 mm 1 mps 722 mmHg 91%
    03:00 +11°C° 0 mm 1 mps 722 mmHg 92%
    04:00 +11°C° 0 mm 1 mps 721 mmHg 93%
    05:00 +13°C° 0 mm 2 mps 722 mmHg 87%
    06:00 +15°C° 0 mm 2 mps 722 mmHg 82%
    07:00 +16°C° 0 mm 2 mps 722 mmHg 76%
    08:00 +17°C° 0.3 mm 3 mps 722 mmHg 74%
    09:00 +18°C° 0.3 mm 3 mps 722 mmHg 72%
    10:00 +19°C° 0.3 mm 3 mps 722 mmHg 70%
    11:00 +20°C° 0.5 mm 3 mps 721 mmHg 70%
    12:00 +20°C° 0.5 mm 3 mps 721 mmHg 70%
    13:00 +20°C° 0.5 mm 3 mps 721 mmHg 70%
    14:00 +20°C° 0.4 mm 3 mps 721 mmHg 69%
    15:00 +20°C° 0.4 mm 3 mps 721 mmHg 69%
    16:00 +20°C° 0.4 mm 3 mps 720 mmHg 68%
    17:00 +19°C° 0.1 mm 3 mps 720 mmHg 73%
    18:00 +17°C° 0.1 mm 2 mps 720 mmHg 77%
    19:00 +16°C° 0.1 mm 2 mps 720 mmHg 82%
    20:00 +15°C° 0 mm 2 mps 720 mmHg 86%
    21:00 +14°C° 0 mm 2 mps 719 mmHg 89%
    22:00 +13°C° 0 mm 2 mps 719 mmHg 93%
    23:00 +12°C° 0.3 mm 2 mps 719 mmHg 94%

    28 June, Thursday

    Time Temperature Precipitation Wind Pressure Humidity
    00:00 +12°C° 0.3 mm 2 mps 719 mmHg 95%
    01:00 +10°C° 0.3 mm 2 mps 718 mmHg 96%
    02:00 +10°C° 0.4 mm 2 mps 718 mmHg 97%
    03:00 +10°C° 0.4 mm 2 mps 718 mmHg 97%
    04:00 +10°C° 0.4 mm 2 mps 718 mmHg 97%
    05:00 +12°C° 0.6 mm 2 mps 718 mmHg 95%
    06:00 +13°C° 0.6 mm 2 mps 718 mmHg 92%
    07:00 +15°C° 0.6 mm 2 mps 718 mmHg 90%
    08:00 +16°C° 0.2 mm 2 mps 717 mmHg 86%
    09:00 +17°C° 0.2 mm 2 mps 717 mmHg 83%
    10:00 +18°C° 0.2 mm 2 mps 717 mmHg 79%
    11:00 +18°C° 0.1 mm 2 mps 717 mmHg 76%
    12:00 +19°C° 0.1 mm 2 mps 717 mmHg 73%
    13:00 +20°C° 0.1 mm 2 mps 716 mmHg 70%
    14:00 +20°C° 0.3 mm 2 mps 716 mmHg 71%
    15:00 +20°C° 0.3 mm 2 mps 716 mmHg 72%
    16:00 +20°C° 0.3 mm 2 mps 716 mmHg 73%
    17:00 +19°C° 0.2 mm 2 mps 716 mmHg 78%
    18:00 +18°C° 0.2 mm 2 mps 716 mmHg 83%
    19:00 +18°C° 0.2 mm 1 mps 715 mmHg 88%
    20:00 +16°C° 0.1 mm 1 mps 715 mmHg 91%
    21:00 +14°C° 0.1 mm 1 mps 715 mmHg 93%
    22:00 +13°C° 0.1 mm 1 mps 715 mmHg 95%
    23:00 +13°C° 0 mm 1 mps 715 mmHg 95%

    29 June, Friday

    Time Temperature Precipitation Wind Pressure Humidity
    00:00 +12°C° 0 mm 1 mps 715 mmHg 95%
    01:00 +12°C° 0 mm 1 mps 715 mmHg 96%
    02:00 +12°C° 0 mm 1 mps 715 mmHg 95%
    03:00 +12°C° 0 mm 1 mps 715 mmHg 95%
    04:00 +11°C° 0 mm 1 mps 715 mmHg 95%
    05:00 +13°C° 0 mm 1 mps 715 mmHg 90%
    06:00 +15°C° 0 mm 1 mps 715 mmHg 85%
    07:00 +18°C° 0 mm 1 mps 716 mmHg 81%
    08:00 +18°C° 0.3 mm 2 mps 715 mmHg 77%
    09:00 +19°C° 0.3 mm 2 mps 715 mmHg 74%
    10:00 +20°C° 0.3 mm 3 mps 715 mmHg 71%
    11:00 +21°C° 0.4 mm 3 mps 715 mmHg 66%
    12:00 +22°C° 0.4 mm 3 mps 715 mmHg 61%
    13:00 +23°C° 0.4 mm 4 mps 715 mmHg 57%
    14:00 +22°C° 0.2 mm 3 mps 715 mmHg 58%
    15:00 +22°C° 0.2 mm 3 mps 714 mmHg 60%
    16:00 +22°C° 0.2 mm 3 mps 714 mmHg 62%
    17:00 +21°C° 0.3 mm 2 mps 714 mmHg 69%
    18:00 +19°C° 0.3 mm 2 mps 714 mmHg 77%
    19:00 +17°C° 0.3 mm 2 mps 714 mmHg 84%
    20:00 +16°C° 0 mm 2 mps 714 mmHg 88%
    21:00 +15°C° 0 mm 2 mps 714 mmHg 92%
    22:00 +14°C° 0 mm 2 mps 714 mmHg 95%
    23:00 +14°C° 0 mm 2 mps 714 mmHg 96%
    Show more